Zurück zum Katalog

STARLINK-35329

AktivKommunikationVLEO
NORAD 65908·PAYLOAD·🇺🇸 United States

Gestartet Oct 7, 2025 von Cape Canaveral Space Force Station

Loading…

Nächste Überflüge (nächste 24 Stunden)

TLE

AktuellSource: CelesTrak SupGP

Epoche: Sep 14, 2026, 15:09 UTC

1 65908C 25224AC  26257.63173611  .00016979  00000+0  50188-3 0  2576
2 65908  53.1576 209.4447 0001446  92.0276 228.0632 15.34367332    19

Verfolge STARLINK-35329 in Echtzeit mit AllMySat

Download on the App Store